When you browse on this site, cookies collect data to enhance your experience and personalize the content and advertising you see.
Visit our Privacy Policy to learn more. By continuing to use the site, you agree to this use of cookies and data.

Hourly Weather Canillo

Today, 24 September, Thursday

Time Temperature Precipitation Wind Pressure Humidity
00:00 +9°C° 0 mm 1 mps 616 mmHg 92%
01:00 +9°C° 0 mm 1 mps 616 mmHg 92%
02:00 +8°C° 0 mm 1 mps 615 mmHg 93%
03:00 +8°C° 0 mm 1 mps 615 mmHg 93%
04:00 +8°C° 0 mm 1 mps 615 mmHg 93%
05:00 +8°C° 0 mm 1 mps 615 mmHg 93%
06:00 +8°C° 0 mm 1 mps 615 mmHg 93%
07:00 +10°C° 0 mm 1 mps 616 mmHg 87%
08:00 +10°C° 0 mm 2 mps 616 mmHg 81%
09:00 +13°C° 0 mm 2 mps 617 mmHg 75%
10:00 +14°C° 0.1 mm 2 mps 617 mmHg 70%
11:00 +15°C° 0.1 mm 2 mps 617 mmHg 65%
12:00 +14°C° 0.1 mm 3 mps 617 mmHg 60%
13:00 +14°C° 0.2 mm 3 mps 617 mmHg 62%
14:00 +13°C° 0.2 mm 3 mps 616 mmHg 64%
15:00 +13°C° 0.2 mm 3 mps 616 mmHg 66%
16:00 +12°C° 0.1 mm 2 mps 615 mmHg 73%
17:00 +10°C° 0.1 mm 2 mps 615 mmHg 80%
18:00 +9°C° 0.1 mm 1 mps 614 mmHg 87%
19:00 +8°C° 0.1 mm 1 mps 614 mmHg 87%
20:00 +8°C° 0.1 mm 1 mps 614 mmHg 87%
21:00 +7°C° 0.1 mm 1 mps 614 mmHg 87%
22:00 +7°C° 0 mm 1 mps 614 mmHg 88%
23:00 +6°C° 0 mm 1 mps 613 mmHg 89%

Tomorrow, 25 September, Friday

Time Temperature Precipitation Wind Pressure Humidity
00:00 +6°C° 0 mm 1 mps 613 mmHg 89%
01:00 +5°C° 0.5 mm 1 mps 613 mmHg 91%
02:00 +4°C° 0.5 mm 2 mps 613 mmHg 92%
03:00 +3°C° 0.5 mm 2 mps 612 mmHg 94%
04:00 +2°C° 1.6 mm 3 mps 612 mmHg 94%
05:00 +1°C° 1.6 mm 3 mps 612 mmHg 95%
06:00 0°C° 1.6 mm 3 mps 612 mmHg 95%
07:00 0°C° 0.6 mm 3 mps 612 mmHg 91%
08:00 +1°C° 0.6 mm 3 mps 612 mmHg 86%
09:00 +1°C° 0.6 mm 3 mps 613 mmHg 81%
10:00 +1°C° 1.4 mm 3 mps 613 mmHg 82%
11:00 +1°C° 1.4 mm 3 mps 613 mmHg 82%
12:00 +2°C° 1.4 mm 3 mps 613 mmHg 82%
13:00 +1°C° 1.1 mm 3 mps 613 mmHg 85%
14:00 +1°C° 1.1 mm 3 mps 613 mmHg 87%
15:00 +1°C° 1.1 mm 3 mps 613 mmHg 89%
16:00 0°C° 1.5 mm 3 mps 613 mmHg 92%
17:00 0°C° 1.5 mm 3 mps 613 mmHg 94%
18:00 -1°C° 1.5 mm 3 mps 613 mmHg 96%
19:00 -1°C° 1.1 mm 3 mps 614 mmHg 96%
20:00 -2°C° 1.1 mm 4 mps 614 mmHg 96%
21:00 -3°C° 1.1 mm 4 mps 615 mmHg 97%
22:00 -3°C° 1.1 mm 4 mps 615 mmHg 97%
23:00 -3°C° 1.1 mm 4 mps 615 mmHg 97%

Day after tomorrow, 26 September, Saturday

Time Temperature Precipitation Wind Pressure Humidity
00:00 -3°C° 1.1 mm 4 mps 615 mmHg 97%
01:00 -3°C° 0.3 mm 4 mps 615 mmHg 96%
02:00 -3°C° 0.3 mm 4 mps 615 mmHg 95%
03:00 -3°C° 0.3 mm 4 mps 614 mmHg 95%
04:00 -4°C° 0.2 mm 4 mps 614 mmHg 95%
05:00 -4°C° 0.2 mm 4 mps 614 mmHg 94%
06:00 -4°C° 0.2 mm 4 mps 614 mmHg 94%
07:00 -2°C° 0.5 mm 3 mps 615 mmHg 93%
08:00 -1°C° 0.5 mm 3 mps 615 mmHg 91%
09:00 +1°C° 0.5 mm 3 mps 616 mmHg 90%
10:00 +1°C° 0.3 mm 3 mps 616 mmHg 88%
11:00 +2°C° 0.3 mm 3 mps 616 mmHg 86%
12:00 +2°C° 0.3 mm 3 mps 616 mmHg 84%
13:00 +2°C° 0.2 mm 3 mps 616 mmHg 84%
14:00 +2°C° 0.2 mm 3 mps 615 mmHg 85%
15:00 +2°C° 0.2 mm 3 mps 615 mmHg 85%
16:00 +3°C° 0.1 mm 2 mps 615 mmHg 88%
17:00 +2°C° 0.1 mm 2 mps 614 mmHg 92%
18:00 +3°C° 0.1 mm 1 mps 614 mmHg 95%
19:00 +3°C° 0.7 mm 1 mps 614 mmHg 96%
20:00 +3°C° 0.7 mm 1 mps 613 mmHg 96%
21:00 +3°C° 0.7 mm 2 mps 613 mmHg 96%
22:00 +3°C° 2.9 mm 2 mps 613 mmHg 97%
23:00 +3°C° 2.9 mm 2 mps 613 mmHg 97%

27 September, Sunday

Time Temperature Precipitation Wind Pressure Humidity
00:00 +4°C° 2.9 mm 1 mps 612 mmHg 98%
01:00 +3°C° 0.6 mm 2 mps 612 mmHg 98%
02:00 +3°C° 0.6 mm 2 mps 612 mmHg 98%
03:00 +3°C° 0.6 mm 2 mps 612 mmHg 98%
04:00 +3°C° 1 mm 2 mps 612 mmHg 98%
05:00 +2°C° 1 mm 2 mps 612 mmHg 98%
06:00 +2°C° 1 mm 2 mps 612 mmHg 98%
07:00 +1°C° 1.4 mm 3 mps 612 mmHg 96%
08:00 +1°C° 1.4 mm 3 mps 612 mmHg 95%
09:00 +2°C° 1.4 mm 3 mps 612 mmHg 93%
10:00 +2°C° 0 mm 3 mps 613 mmHg 87%
11:00 +3°C° 0 mm 3 mps 613 mmHg 82%
12:00 +3°C° 0 mm 3 mps 613 mmHg 76%
13:00 +3°C° 0 mm 3 mps 613 mmHg 76%
14:00 +3°C° 0 mm 3 mps 613 mmHg 76%
15:00 +3°C° 0 mm 3 mps 613 mmHg 76%
16:00 +1°C° 0.2 mm 3 mps 613 mmHg 81%
17:00 0°C° 0.2 mm 3 mps 613 mmHg 86%
18:00 -1°C° 0.2 mm 3 mps 613 mmHg 90%
19:00 -1°C° 0.3 mm 3 mps 614 mmHg 91%
20:00 -1°C° 0.3 mm 3 mps 614 mmHg 92%
21:00 -1°C° 0.3 mm 3 mps 615 mmHg 93%
22:00 -1°C° 0 mm 3 mps 615 mmHg 93%
23:00 -1°C° 0 mm 2 mps 615 mmHg 93%

28 September, Monday

Time Temperature Precipitation Wind Pressure Humidity
00:00 -1°C° 0 mm 2 mps 615 mmHg 93%
01:00 -2°C° 0 mm 2 mps 615 mmHg 92%
02:00 -2°C° 0 mm 2 mps 615 mmHg 92%
03:00 -2°C° 0 mm 2 mps 615 mmHg 91%
04:00 -2°C° 0 mm 2 mps 615 mmHg 89%
05:00 -2°C° 0 mm 2 mps 615 mmHg 88%
06:00 -1°C° 0 mm 2 mps 615 mmHg 86%
07:00 +2°C° 0 mm 2 mps 616 mmHg 83%
08:00 +4°C° 0 mm 2 mps 617 mmHg 80%
09:00 +7°C° 0 mm 1 mps 618 mmHg 77%
10:00 +8°C° 0 mm 1 mps 619 mmHg 76%
11:00 +8°C° 0 mm 2 mps 619 mmHg 74%
12:00 +9°C° 0 mm 2 mps 619 mmHg 72%
13:00 +9°C° 0 mm 2 mps 619 mmHg 74%
14:00 +8°C° 0 mm 2 mps 619 mmHg 75%
15:00 +8°C° 0 mm 2 mps 618 mmHg 77%
16:00 +7°C° 0 mm 2 mps 618 mmHg 82%
17:00 +5°C° 0 mm 2 mps 617 mmHg 88%
18:00 +4°C° 0 mm 1 mps 617 mmHg 93%
19:00 +4°C° 0 mm 1 mps 617 mmHg 91%
20:00 +4°C° 0 mm 1 mps 617 mmHg 89%
21:00 +4°C° 0 mm 1 mps 617 mmHg 88%
22:00 +4°C° 0 mm 1 mps 617 mmHg 85%
23:00 +4°C° 0 mm 1 mps 617 mmHg 82%

29 September, Tuesday

Time Temperature Precipitation Wind Pressure Humidity
00:00 +4°C° 0 mm 1 mps 617 mmHg 80%
01:00 +4°C° 0 mm 1 mps 617 mmHg 79%
02:00 +4°C° 0 mm 1 mps 617 mmHg 79%
03:00 +4°C° 0 mm 1 mps 617 mmHg 79%
04:00 +4°C° 0 mm 1 mps 617 mmHg 78%
05:00 +4°C° 0 mm 1 mps 617 mmHg 78%
06:00 +4°C° 0 mm 1 mps 617 mmHg 77%
07:00 +6°C° 0 mm 1 mps 618 mmHg 75%
08:00 +8°C° 0 mm 1 mps 619 mmHg 73%
09:00 +10°C° 0 mm 1 mps 619 mmHg 71%
10:00 +11°C° 0 mm 1 mps 620 mmHg 69%
11:00 +12°C° 0 mm 1 mps 620 mmHg 66%
12:00 +13°C° 0 mm 1 mps 620 mmHg 64%
13:00 +13°C° 0 mm 1 mps 620 mmHg 65%
14:00 +13°C° 0 mm 1 mps 619 mmHg 65%
15:00 +13°C° 0 mm 1 mps 619 mmHg 66%
16:00 +11°C° 0 mm 1 mps 618 mmHg 72%
17:00 +9°C° 0 mm 1 mps 617 mmHg 78%
18:00 +7°C° 0 mm 1 mps 616 mmHg 85%
19:00 +6°C° 0 mm 1 mps 616 mmHg 83%
20:00 +6°C° 0 mm 1 mps 616 mmHg 82%
21:00 +6°C° 0 mm 1 mps 616 mmHg 81%
22:00 +6°C° 0 mm 1 mps 616 mmHg 79%
23:00 +5°C° 0 mm 1 mps 616 mmHg 78%
Show more